Weather History for CYBW - June, 2013

Change the Weather History Date:

Monday, June 10, 2013

  Actual Average Record
Temperature  
Mean Temperature 46 °F -  
Max Temperature 61 °F 64 °F 71 °F (1997)
Min Temperature 30 °F 41 °F 30 °F (1999)
Degree Days  
Heating Degree Days 20    
Moisture  
Dew Point 39 °F    
Average Humidity 70    
Maximum Humidity 100    
Minimum Humidity 44    
Precipitation  
Precipitation 0.00 in - - ()
Sea Level Pressure  
Sea Level Pressure 29.98 in    
Wind  
Wind Speed 5 mph ()    
Max Wind Speed 12 mph    
Max Gust Speed 17 mph    
Visibility 18.0 miles    
Events Rain    
Averages and records for this station are not official NWS values.
T = Trace of Precipitation, MM = Missing Value Source: Averaged Metar Reports

Daily Weather History Graph

Daily Weather History Graph

Search for Another Location

Airport or City:

Trip Planner

Search our weather history database for the weather conditions in past years. The results will help you decide how hot, cold, wet, or windy it might be!

Date:

Astronomy

Jun. 10, 2013 Rise Set
Actual Time 5:22 AM MDT 9:51 PM MDT
Civil Twilight 4:36 AM MDT 10:37 PM MDT
Nautical Twilight 3:27 AM MDT 11:47 PM MDT
Astronomical Twilight 2:09 AM MDT 1:04 AM MDT
Moon 7:25 AM MDT (6/10) 11:07 PM MDT (6/10)
Length of Visible Light 18h 01m
Length of Day
16h 28m
Waxing Crescent, 4% of the Moon is Illuminated
Jun 10
Waxing Crescent
Jun 16
First Quarter
Jun 23
Full
Jun 29
Last Quarter
Jul 8
New

Hourly Weather History & Observations

Time (MDT) Temp. Windchill Dew Point Humidity Pressure Visibility Wind Dir Wind Speed Gust Speed Precip Events Conditions
5:00 AM 30.2 °F 25.4 °F 30.2 °F 100% 30.01 in 30.0 mi West 4.6 mph - N/A   Partly Cloudy
6:00 AM 32 °F - 32 °F 100% 30.01 in 28 mi NW 5.8 mph - -   Scattered Clouds
6:00 AM 32.0 °F 26.4 °F 32.0 °F 100% 30.01 in 30.0 mi NW 5.8 mph - N/A   Partly Cloudy
7:00 AM 35.6 °F 32.8 °F 35.6 °F 100% 30.00 in 30.0 mi NNW 3.5 mph - N/A   Partly Cloudy
8:00 AM 42.8 °F 41.1 °F 39.2 °F 87% 29.99 in 30.0 mi NW 3.5 mph - N/A   Clear
9:00 AM 48.2 °F - 37.4 °F 66% 29.99 in 30.0 mi North 9.2 mph - N/A   Partly Cloudy
10:00 AM 48.2 °F - 37.4 °F 66% 30.00 in 30.0 mi North 6.9 mph - N/A   Mostly Cloudy
11:00 AM 48.2 °F - 37.4 °F 66% 30.00 in 30.0 mi NNE 5.8 mph - N/A   Mostly Cloudy
12:00 PM 53.6 °F - 39.2 °F 58% 29.98 in 30.0 mi NE 5.8 mph - N/A   Mostly Cloudy
1:00 PM 53.6 °F - 39.2 °F 58% 29.96 in 30.0 mi SE 4.6 mph - N/A   Mostly Cloudy
2:00 PM 55.4 °F - 41.0 °F 58% 29.96 in 30.0 mi East 3.5 mph - N/A   Mostly Cloudy
3:00 PM 59.0 °F - 41.0 °F 51% 29.94 in 30.0 mi East 6.9 mph - N/A   Mostly Cloudy
4:00 PM 59.0 °F - 41.0 °F 51% 29.94 in 30.0 mi SE 8.1 mph 17.3 mph N/A   Mostly Cloudy
5:00 PM 57.2 °F - 42.8 °F 59% 29.97 in 30.0 mi SE 8.1 mph - N/A   Mostly Cloudy
5:44 PM 57.2 °F - 42.8 °F 59% 29.97 in 30.0 mi East 9.2 mph - N/A   Mostly Cloudy
6:00 PM 57 °F - 41 °F 44% 29.97 in 28 mi Calm Calm - -   Mostly Cloudy
6:00 PM 57.2 °F - 41.0 °F 55% 29.97 in 30.0 mi East 9.2 mph - N/A   Mostly Cloudy
7:00 PM 53.6 °F - 41.0 °F 62% 29.98 in 20.0 mi North 11.5 mph - N/A   Mostly Cloudy
7:42 PM 51.8 °F - 42.8 °F 71% 30.00 in 15.0 mi North 3.5 mph - N/A Rain Light Rain Showers
8:00 PM 51.8 °F - 42.8 °F 71% 29.99 in 15.0 mi East 9.2 mph - N/A Rain Light Rain Showers
9:00 PM 50.0 °F - 42.8 °F 76% 30.00 in 20.0 mi SE 9.2 mph - N/A Rain Light Rain Showers
10:00 PM 48.2 °F - 42.8 °F 82% 30.03 in 20.0 mi ESE 6.9 mph - N/A Rain Light Rain Showers